FW0891 Weather Reports


Display with metric or nautical units.
time (UTC)temp
F
wind
direction
speed
MPH
gust
MPH
rain 1hr
in
rain 24hr
in
rain mn
in
humidity
%
barometer
mb
20260506151003 79 150 6.0 0.0 0.00 0.00 0.02 81 1009.4
20260506150504 79 158 7.0 0.0 0.00 0.00 0.02 81 1009.3
20260506145503 78 178 7.0 0.0 0.00 0.00 0.02 82 1009.4
20260506145003 78 137 6.0 0.0 0.00 0.00 0.02 83 1009.5
20260506144503 78 153 7.0 0.0 0.00 0.00 0.02 83 1009.6
20260506144004 78 170 6.0 0.0 0.00 0.00 0.02 83 1009.6
20260506143504 78 160 6.0 0.0 0.00 0.00 0.02 83 1009.6
20260506143003 78 113 5.0 0.0 0.00 0.00 0.02 84 1009.5
20260506142504 78 127 7.0 0.0 0.00 0.00 0.02 85 1009.3
20260506142003 77 151 7.0 0.0 0.00 0.00 0.02 85 1009.1
20260506141503 77 119 7.0 0.0 0.00 0.00 0.02 85 1008.9
20260506140503 77 143 8.0 0.0 0.00 0.00 0.02 86 1008.8
20260506140004 77 138 6.0 0.0 0.00 0.00 0.02 86 1008.9
20260506134504 77 133 7.0 0.0 0.00 0.00 0.02 87 1008.8
20260506133504 77 132 6.0 0.0 0.00 0.00 0.02 88 1008.7
20260506132504 77 119 7.0 0.0 0.00 0.00 0.02 89 1008.6
20260506132003 76 120 4.0 0.0 0.00 0.00 0.02 90 1008.7
20260506131504 76 98 4.0 0.0 0.00 0.00 0.02 90 1008.7
20260506131004 76 132 0.0 0.0 0.00 0.00 0.02 89 1008.8
20260506130504 76 122 0.0 0.0 0.00 0.00 0.02 89 1008.8
20260506125003 75 110 3.0 0.0 0.02 0.00 0.02 89 1008.6
20260506124003 75 122 0.0 0.0 0.02 0.00 0.02 89 1008.6
20260506123504 75 135 0.0 0.0 0.02 0.00 0.02 89 1008.6
20260506123004 75 136 0.0 0.0 0.02 0.00 0.02 89 1008.5
20260506122503 75 115 0.0 0.0 0.02 0.00 0.02 88 1008.5
20260506122004 75 117 0.0 0.0 0.00 0.00 0.00 88 1008.6
20260506121503 75 110 2.0 0.0 0.00 0.00 0.00 88 1008.5
20260506121004 75 108 3.0 0.0 0.00 0.00 0.00 88 1008.5
20260506120504 75 103 0.0 0.0 0.00 0.00 0.00 88 1008.6
20260506120004 75 128 0.0 0.0 0.00 0.00 0.00 88 1008.5
20260506115503 75 156 0.0 0.0 0.00 0.00 0.00 87 1008.5
20260506114503 75 169 3.0 0.0 0.00 0.00 0.00 87 1008.4
20260506114003 75 180 2.0 0.0 0.00 0.00 0.00 87 1008.4
20260506113503 75 193 4.0 0.0 0.00 0.00 0.00 87 1008.3
20260506113004 75 184 4.0 0.0 0.00 0.00 0.00 87 1008.2
20260506112004 75 179 4.0 0.0 0.00 0.00 0.00 87 1008.1
20260506111003 75 172 5.0 0.0 0.00 0.00 0.00 87 1008.2
20260506110503 75 171 5.0 0.0 0.00 0.00 0.00 87 1008.1
20260506110004 75 157 5.0 0.0 0.00 0.00 0.00 87 1008.0
20260506105504 76 156 5.0 0.0 0.00 0.00 0.00 87 1008.0
20260506104503 76 168 5.0 0.0 0.00 0.00 0.00 87 1007.8
20260506104005 76 158 6.0 0.0 0.00 0.00 0.00 87 1007.7
20260506103503 75 164 5.0 0.0 0.00 0.00 0.00 87 1007.7
20260506103003 75 159 4.0 0.0 0.00 0.00 0.00 87 1007.7
20260506102504 75 161 0.0 0.0 0.00 0.00 0.00 87 1007.7
20260506102004 75 164 0.0 0.0 0.00 0.00 0.00 87 1007.7
20260506101003 76 151 4.0 0.0 0.00 0.00 0.00 87 1007.4
20260506100504 76 157 3.0 0.0 0.00 0.00 0.00 87 1007.4
20260506100004 76 172 4.0 0.0 0.00 0.00 0.00 87 1007.5
20260506095503 76 125 4.0 0.0 0.00 0.00 0.00 87 1007.3
20260506095003 76 148 4.0 0.0 0.00 0.00 0.00 87 1007.2
20260506094504 76 131 4.0 0.0 0.00 0.00 0.00 86 1007.2
20260506094004 76 141 4.0 0.0 0.00 0.00 0.00 86 1007.3
20260506093504 76 137 4.0 0.0 0.00 0.00 0.00 86 1007.2
20260506092003 76 159 4.0 0.0 0.00 0.00 0.00 86 1007.2
20260506091004 76 160 6.0 0.0 0.00 0.00 0.00 86 1007.1
20260506090503 76 167 6.0 0.0 0.00 0.00 0.00 86 1007.1
20260506090003 76 144 5.0 0.0 0.00 0.00 0.00 86 1007.2
20260506085504 76 175 5.0 0.0 0.00 0.00 0.00 86 1007.2
20260506085004 76 156 5.0 0.0 0.00 0.00 0.00 86 1007.0
20260506084503 76 148 6.0 0.0 0.00 0.00 0.00 86 1007.0
20260506084004 76 171 8.0 0.0 0.00 0.00 0.00 86 1007.0
20260506083503 76 162 7.0 0.0 0.00 0.00 0.00 86 1007.0
20260506083003 76 168 8.0 0.0 0.00 0.00 0.00 86 1007.0
20260506082504 76 162 9.0 0.0 0.00 0.00 0.00 86 1007.0
20260506082004 76 159 8.0 0.0 0.00 0.00 0.00 86 1007.1
20260506081504 76 159 10.0 0.0 0.00 0.00 0.00 86 1007.1
20260506081004 75 161 11.0 0.0 0.00 0.00 0.00 86 1006.9
20260506080504 75 169 10.0 0.0 0.00 0.00 0.00 87 1006.9
20260506073003 75 161 10.0 0.0 0.00 0.00 0.00 87 1007.2
20260506072504 75 159 11.0 0.0 0.00 0.00 0.00 87 1007.1
20260506072004 75 157 12.0 0.0 0.00 0.00 0.00 87 1007.2
20260506071504 75 150 11.0 0.0 0.00 0.00 0.00 88 1007.2
20260506071003 75 153 11.0 0.0 0.00 0.00 0.00 88 1007.2
20260506070503 74 149 11.0 0.0 0.00 0.00 0.00 89 1007.2
20260506062503 75 144 11.0 0.0 0.00 0.00 0.00 88 1007.6
20260506062003 75 145 11.0 0.0 0.00 0.00 0.00 88 1007.6
20260506061503 75 145 11.0 0.0 0.00 0.00 0.00 88 1007.5
20260506061003 75 149 10.0 0.0 0.00 0.00 0.00 88 1007.7
20260506060504 75 147 9.0 0.0 0.00 0.00 0.00 87 1007.7
20260506050504 75 156 12.0 0.0 0.00 0.00 0.00 86 1007.4
20260506043503 76 140 11.0 0.0 0.00 0.00 0.00 84 1007.5
20260506042503 76 151 11.0 0.0 0.00 0.00 0.00 84 1007.3
20260506042004 76 150 12.0 0.0 0.00 0.00 0.00 83 1007.4
20260506040503 76 168 12.0 0.0 0.00 0.00 0.00 83 1007.3
20260506040003 77 153 11.0 0.0 0.00 0.00 0.00 82 1007.1
20260506035503 77 151 12.0 0.0 0.00 0.00 0.00 82 1007.0
20260506035004 77 144 14.0 0.0 0.00 0.00 0.00 82 1006.9
20260506034003 77 153 12.0 0.0 0.00 0.00 0.00 81 1006.9
20260506033503 77 148 12.0 0.0 0.00 0.00 0.00 81 1006.8
20260506033004 77 160 11.0 0.0 0.00 0.00 0.00 80 1006.6
20260506032003 77 153 12.0 0.0 0.00 0.00 0.00 80 1006.6
20260506031503 77 148 13.0 0.0 0.00 0.00 0.00 79 1006.4
20260506031003 78 145 12.0 0.0 0.00 0.00 0.00 79 1006.4
20260506030503 78 141 14.0 0.0 0.00 0.00 0.00 78 1006.4
20260506025503 78 158 13.0 0.0 0.00 0.00 0.00 77 1006.3
20260506025003 78 167 14.0 0.0 0.00 0.00 0.00 77 1006.1
20260506024503 78 170 13.0 0.0 0.00 0.00 0.00 77 1006.1
20260506024004 78 157 14.0 0.0 0.00 0.00 0.00 77 1006.1
20260506023503 78 162 14.0 0.0 0.00 0.00 0.00 77 1006.0
20260506023003 78 156 14.0 0.0 0.00 0.00 0.00 77 1006.0
20260506022503 78 164 14.0 0.0 0.00 0.00 0.00 76 1005.9
20260506022003 78 153 15.0 0.0 0.00 0.00 0.00 76 1005.9
20260506021503 78 152 14.0 0.0 0.00 0.00 0.00 76 1006.0
20260506021003 78 163 14.0 0.0 0.00 0.00 0.00 76 1006.0
20260506020503 78 156 11.0 0.0 0.00 0.00 0.00 77 1006.0
20260506020003 79 157 10.0 0.0 0.00 0.00 0.00 76 1006.1
20260506015503 79 155 11.0 0.0 0.00 0.00 0.00 76 1006.1
20260506015003 79 159 12.0 0.0 0.00 0.00 0.00 76 1005.9
20260506014504 79 154 12.0 0.0 0.00 0.00 0.00 76 1005.8
20260506014003 79 153 11.0 0.0 0.00 0.00 0.00 76 1005.8
20260506013504 79 176 10.0 0.0 0.00 0.00 0.00 77 1005.8
20260506013003 79 166 10.0 0.0 0.00 0.00 0.00 76 1005.6
20260506012003 79 159 11.0 0.0 0.00 0.00 0.00 75 1005.3
20260506011504 79 156 13.0 0.0 0.00 0.00 0.00 75 1005.2
20260506010003 80 153 11.0 0.0 0.00 0.00 0.00 74 1004.9
20260506005503 80 165 12.0 0.0 0.00 0.00 0.00 72 1004.8
20260506005003 80 161 15.0 0.0 0.00 0.00 0.00 72 1004.8
20260506004504 81 157 16.0 0.0 0.00 0.00 0.00 71 1004.7
20260506004002 81 161 16.0 0.0 0.00 0.00 0.00 71 1004.6
20260506003503 81 150 14.0 0.0 0.00 0.00 0.00 71 1004.6
20260506003003 81 160 14.0 0.0 0.00 0.00 0.00 70 1004.7
20260506002503 82 161 15.0 0.0 0.00 0.00 0.00 70 1004.8
20260506002003 82 170 14.0 0.0 0.00 0.00 0.00 69 1004.7
20260506001503 82 153 14.0 0.0 0.00 0.00 0.00 69 1004.8
20260506001003 82 162 17.0 0.0 0.00 0.00 0.00 68 1004.9
20260506000503 83 158 15.0 0.0 0.00 0.00 0.00 68 1004.8
20260506000003 83 163 13.0 0.0 0.00 0.00 0.00 68 1004.8
20260505235503 83 146 13.0 0.0 0.00 0.00 0.00 68 1004.7
20260505235003 83 166 17.0 0.0 0.00 0.00 0.00 67 1004.6
20260505234503 83 157 16.0 0.0 0.00 0.00 0.00 67 1004.7
20260505234003 83 160 15.0 0.0 0.00 0.00 0.00 67 1004.6
20260505233503 83 143 16.0 0.0 0.00 0.00 0.00 67 1004.6
20260505233003 83 153 16.0 0.0 0.00 0.00 0.00 67 1004.5
20260505232503 84 142 17.0 0.0 0.00 0.00 0.00 66 1004.5
20260505232003 84 143 18.0 0.0 0.00 0.00 0.00 66 1004.4
20260505231503 84 156 17.0 0.0 0.00 0.00 0.00 65 1004.3
20260505230503 84 150 18.0 0.0 0.00 0.00 0.00 65 1004.4
20260505230003 85 158 16.0 0.0 0.00 0.00 0.00 64 1004.4
20260505225503 85 183 16.0 0.0 0.00 0.00 0.00 62 1004.6
20260505224503 85 167 15.0 0.0 0.00 0.00 0.00 63 1004.7
20260505224003 85 158 16.0 0.0 0.00 0.00 0.00 61 1004.5
20260505223503 86 154 17.0 0.0 0.00 0.00 0.00 63 1004.5
20260505223003 86 145 15.0 0.0 0.00 0.00 0.00 62 1004.5
20260505222503 86 156 15.0 0.0 0.00 0.00 0.00 62 1004.5
20260505221003 87 188 12.0 0.0 0.00 0.00 0.00 60 1004.6
20260505220503 87 179 12.0 0.0 0.00 0.00 0.00 59 1004.7
20260505220003 86 171 14.0 0.0 0.00 0.00 0.00 60 1004.7
20260505215503 86 164 16.0 0.0 0.00 0.00 0.00 59 1004.7
20260505215003 87 165 16.0 0.0 0.00 0.00 0.00 59 1004.7
20260505214503 86 196 14.0 0.0 0.00 0.00 0.00 60 1004.7
20260505214003 87 202 14.0 0.0 0.00 0.00 0.00 61 1004.7
20260505213503 86 179 15.0 0.0 0.00 0.00 0.00 60 1004.8
20260505213003 86 176 13.0 0.0 0.00 0.00 0.00 61 1004.9
20260505212503 86 180 14.0 0.0 0.00 0.00 0.00 60 1004.9
20260505212003 88 164 15.0 0.0 0.00 0.00 0.00 58 1004.9
20260505211503 87 181 14.0 0.0 0.00 0.00 0.00 57 1005.1
20260505211003 86 185 16.0 0.0 0.00 0.00 0.00 60 1005.2
20260505210503 86 183 15.0 0.0 0.00 0.00 0.00 59 1005.2
20260505205503 86 175 15.0 0.0 0.00 0.00 0.00 60 1005.4
20260505205003 87 160 12.0 0.0 0.00 0.00 0.00 59 1005.5
20260505204503 87 183 13.0 0.0 0.00 0.00 0.00 58 1005.6
20260505204003 86 197 11.0 0.0 0.00 0.00 0.00 60 1005.6
20260505203003 87 184 14.0 0.0 0.00 0.00 0.00 60 1005.8
20260505202503 87 166 13.0 0.0 0.00 0.00 0.00 60 1005.8
20260505202003 85 177 14.0 0.0 0.00 0.00 0.00 63 1005.9
20260505201503 86 157 15.0 0.0 0.00 0.00 0.00 61 1006.0
20260505201003 86 200 15.0 0.0 0.00 0.00 0.00 59 1006.0
20260505200503 86 192 14.0 0.0 0.00 0.00 0.00 60 1006.1
20260505200003 85 199 12.0 0.0 0.00 0.00 0.00 62 1006.2
20260505195503 85 217 15.0 0.0 0.00 0.00 0.00 62 1006.3
20260505195003 85 207 15.0 0.0 0.00 0.00 0.00 62 1006.2
20260505194503 85 210 16.0 0.0 0.00 0.00 0.00 63 1006.3
20260505194003 85 187 12.0 0.0 0.00 0.00 0.00 63 1006.4
20260505193503 85 211 13.0 0.0 0.00 0.00 0.00 62 1006.5
20260505193003 84 179 17.0 0.0 0.00 0.00 0.00 62 1006.5
20260505192503 84 177 13.0 0.0 0.00 0.00 0.00 64 1006.7
20260505192003 84 170 15.0 0.0 0.00 0.00 0.00 63 1006.8
20260505191003 84 187 14.0 0.0 0.00 0.00 0.00 63 1006.8
20260505190503 84 189 16.0 0.0 0.00 0.00 0.00 63 1006.8
20260505185503 83 208 15.0 0.0 0.00 0.00 0.00 65 1006.8
20260505184503 84 184 13.0 0.0 0.00 0.00 0.00 64 1006.8
20260505184003 84 196 13.0 0.0 0.00 0.00 0.00 64 1006.8
20260505183503 83 200 17.0 0.0 0.00 0.00 0.00 64 1006.8
20260505183003 83 207 15.0 0.0 0.00 0.00 0.00 65 1006.8
20260505182503 84 177 17.0 0.0 0.00 0.00 0.00 64 1006.8
20260505182003 83 195 15.0 0.0 0.00 0.00 0.00 66 1006.9
20260505181503 83 210 15.0 0.0 0.00 0.00 0.00 65 1006.9
20260505181003 83 198 17.0 0.0 0.00 0.00 0.00 65 1007.1
20260505180503 83 211 18.0 0.0 0.00 0.00 0.00 66 1007.1
20260505180003 82 199 13.0 0.0 0.00 0.00 0.00 68 1007.2
20260505175503 82 186 15.0 0.0 0.00 0.00 0.00 68 1007.2
20260505174503 82 201 13.0 0.0 0.00 0.00 0.00 69 1007.3
20260505174003 81 196 17.0 0.0 0.00 0.00 0.00 69 1007.4
20260505173503 82 173 16.0 0.0 0.00 0.00 0.00 68 1007.5
20260505173003 82 180 13.0 0.0 0.00 0.00 0.00 68 1007.5
20260505172503 81 178 14.0 0.0 0.00 0.00 0.00 69 1007.5
20260505172003 81 180 15.0 0.0 0.00 0.00 0.00 70 1007.5
20260505171003 81 195 13.0 0.0 0.00 0.00 0.00 72 1007.7
20260505170503 81 222 14.0 0.0 0.00 0.00 0.00 70 1007.6
20260505170003 81 182 15.0 0.0 0.00 0.00 0.00 71 1007.6
20260505165503 80 223 14.0 0.0 0.00 0.00 0.00 73 1007.6
20260505165003 80 177 16.0 0.0 0.00 0.00 0.00 72 1007.6
20260505164503 79 190 18.0 0.0 0.00 0.00 0.00 73 1007.8
20260505164003 80 173 15.0 0.0 0.00 0.00 0.00 73 1007.8
20260505163003 79 185 15.0 0.0 0.00 0.00 0.00 74 1007.8
20260505162503 79 195 15.0 0.0 0.00 0.00 0.00 75 1007.8
20260505162003 78 184 13.0 0.0 0.00 0.00 0.00 76 1007.9
20260505160503 77 192 12.0 0.0 0.00 0.00 0.00 79 1008.0
20260505153003 75 177 10.0 0.0 0.00 0.00 0.00 83 1007.9
20260505152503 74 175 10.0 0.0 0.00 0.00 0.00 85 1007.9
20260505152003 74 189 14.0 0.0 0.00 0.00 0.00 85 1007.9
20260505151503 74 176 11.0 0.0 0.00 0.00 0.00 84 1007.9